Starlink 11536

operational
NORAD ID: 62563 Int'l Des: 2025-006 Owner: SPXS Country: US Constellation: starlink
LEOCIRCULAR

Über Starlink 11536

Beschreibung wird geladen...

Live-Position

3D-Globus wird geladen...

Nächste Überflüge

Höhenverlauf

Altitude vs Time

uPlot chart will show altitude changes over time

Zweizeiliger Elementsatz

1 62563U 25006K 25302.45221221 .00405240 00000-0 29873-2 0 9992
2 62563 42.9998 210.8163 0001823 289.0791 70.9879 15.71022014 45963
Epoch: 29. Okt. 2025 • Age: 10 hours

Aktueller Status

Höhe 356.2 km
Geschwindigkeit 7.70 km/s
Subsatellitenpunkt 26.64°N, 8.66°E
Startdatum 10. Jan. 2025
Alter 0.7 years
Typ internet

Technische Details

Klassifizierung Payload
Masse 960.00 kg
Trockenmasse 910.00 kg
Gesamtmasse 960.00 kg
Länge 0.30 m
Durchmesser 4.10 m
Spannweite 29.00 m
Form Box + pan
Hersteller SPXS
Bus-Typ Starlink V2MD
Phasenstatus In Orbit
Besitzer/Staat SPXS/US

Große Konstellationen

Loading constellations...